Volver al catálogo

COSMOS 2251 DEB

ActivoLEO
NORAD 34681·DEBRIS·🇷🇺 Russia

Lanzado Jun 16, 1993 desde Plesetsk Cosmodrome

Loading…

Próximos Pases (próximas 24 horas)

TLE

ActualizadoSource: Space-Track

Época: Sep 14, 2026, 00:49 UTC

1 34681U 93036YB  26257.03431934  .00006188  00000-0  66975-3 0  9991
2 34681  74.0586 103.6497 0022884  97.7848  53.8938 14.88270919933607

Sigue COSMOS 2251 DEB en tiempo real con AllMySat

Download on the App Store